Theta_e
292 294 301 311 314 316 318 319 321 322 324 326 328 329 333 336 338 339 338 338 337 337 339 338 338 339 340 337 336 336 334 336 337 340 337 336 341 336 331 331 333 337 339
291 292 298 308 311 313 315 316 317 319 320 321 324 325 326 328 331 334 338 339 339 339 338 338 337 338 337 337 334 335 334 334 333 334 337 336 336 335 331 330 336 338 338
289 290 298 305 307 309 311 312 313 314 317 318 319 321 322 323 325 326 329 331 335 337 337 336 336 336 337 336 336 335 334 333 332 331 335 337 337 334 335 331 335 337 337
289 289 298 302 304 306 307 308 309 309 310 313 316 317 318 320 321 323 323 326 331 332 335 336 335 335 337 336 334 336 334 330 329 328 333 335 336 337 335 332 336 337 336
289 289 295 299 301 303 304 305 305 306 307 308 309 311 312 315 317 318 319 327 327 327 329 333 336 334 333 335 333 334 334 330 330 327 333 334 336 337 338 337 337 337 336
288 288 291 296 298 300 300 301 302 303 303 304 305 305 306 309 311 313 315 317 321 327 328 330 332 335 335 333 334 334 333 332 331 334 334 334 335 337 337 338 336 336 336
288 288 288 292 294 296 298 298 299 299 299 299 300 301 301 302 304 305 308 311 314 319 324 326 331 333 333 335 333 334 334 333 335 335 335 333 334 336 334 337 337 336 334
288 287 287 287 289 291 294 295 296 296 296 296 296 297 296 295 298 300 301 304 307 311 313 318 324 330 332 334 335 334 334 333 335 335 334 333 334 332 330 336 338 336 335
287 287 287 287 287 288 289 291 292 292 292 293 292 293 292 291 292 294 294 298 301 304 307 310 317 323 329 333 334 334 333 334 335 335 334 333 333 332 333 333 337 336 335
287 287 287 286 286 287 287 288 288 289 289 289 289 289 290 290 289 291 291 292 295 298 300 303 307 316 323 328 332 333 334 332 335 335 334 333 333 333 337 336 336 336 336
287 286 286 286 286 286 286 286 286 287 287 287 287 287 288 289 288 289 290 290 291 293 293 296 299 305 316 321 326 330 333 335 333 333 335 332 331 332 335 336 336 337 336
286 286 285 285 285 285 285 286 286 286 286 286 286 286 287 287 287 288 289 289 290 291 291 292 294 297 303 306 312 322 329 331 333 334 333 333 332 330 336 335 333 335 335
286 285 285 285 285 285 285 285 285 285 285 285 285 285 286 286 286 286 288 287 288 289 290 290 291 294 297 300 302 307 315 325 329 333 334 334 332 328 335 336 335 333 334
285 285 285 284 284 284 285 285 285 285 285 285 284 284 285 285 285 285 286 286 287 288 289 289 290 291 294 296 298 302 305 312 322 328 331 333 334 329 332 335 335 333 333
285 285 284 284 284 284 284 284 284 284 284 284 284 284 284 284 284 284 285 285 286 286 287 288 289 290 292 293 294 297 301 305 310 318 326 331 333 332 329 333 336 336 334
284 284 284 284 283 283 283 283 283 283 283 283 283 283 283 283 284 284 284 284 285 285 286 286 288 289 291 291 292 294 297 300 305 309 317 327 332 331 332 327 333 335 336
284 283 283 283 283 283 283 282 283 283 283 283 283 283 282 282 283 283 284 284 284 284 285 286 287 288 288 289 291 293 295 297 300 304 309 317 328 332 330 331 328 332 334
284 283 283 283 282 282 282 282 283 283 283 283 283 283 282 282 282 282 283 283 283 284 284 285 285 286 287 288 289 292 293 295 298 301 306 310 319 329 332 330 331 328 332
283 283 283 283 282 282 282 282 282 282 283 283 282 282 282 282 282 282 282 282 282 283 283 284 284 285 286 287 289 290 291 293 295 297 300 304 313 323 331 331 331 330 326
283 283 282 282 282 281 281 282 282 282 282 282 282 282 282 282 282 282 282 282 282 282 283 283 283 284 285 286 288 289 290 293 296 299 302 305 308 318 327 332 331 331 329
283 283 282 282 282 281 281 281 281 281 281 282 282 281 281 281 281 281 281 282 282 282 282 282 283 283 284 285 287 289 289 292 295 297 298 302 307 313 323 328 331 331 331
283 283 282 282 281 281 280 280 281 281 281 281 281 281 281 281 281 281 281 281 281 281 282 282 282 283 283 285 286 287 293 294 297 302 307 308 308 316 321 326 330 330 331
283 282 281 281 281 280 280 280 280 281 281 281 281 281 281 280 280 280 280 281 281 281 281 282 282 282 283 283 284 286 290 294 293 297 304 305 306 314 323 325 330 329 330
283 282 281 281 280 280 280 280 280 280 280 280 280 280 280 280 280 280 280 280 281 281 281 281 281 282 282 283 284 284 286 287 289 293 294 297 299 299 303 312 323 328 329
282 281 281 280 280 280 279 279 279 280 280 280 280 280 280 280 280 280 280 280 280 281 281 281 281 281 281 282 283 283 284 286 286 290 292 295 296 296 296 302 305 311 326
282 281 280 280 279 279 279 279 279 279 279 279 280 280 280 280 280 280 280 280 280 280 280 281 281 281 281 281 282 282 283 285 286 288 290 292 294 294 294 296 300 305 318
Wind_Speed
19 22 25 28 28 29 30 31 32 32 32 30 30 31 29 29 20 15 11 10 8 7 7 6 4 3 5 5 3 2 5 5 6 6 9 7 7 9 9 10 10 8 10
14 17 23 25 26 26 28 29 29 30 30 30 29 29 30 31 27 26 20 13 11 10 9 7 5 4 4 4 5 4 3 3 5 6 8 6 6 7 8 11 13 9 10
14 16 21 22 24 26 26 28 29 29 29 29 28 27 27 28 29 28 28 26 22 14 11 9 7 3 4 4 3 6 5 4 4 7 8 6 5 7 8 10 12 11 10
13 15 19 21 23 24 26 28 28 29 29 29 27 28 27 25 26 26 27 27 17 19 21 13 8 5 3 7 8 7 7 7 6 7 7 7 7 8 10 11 11 10 10
12 13 17 20 21 23 25 25 26 27 27 28 28 28 27 27 26 25 24 16 16 18 19 18 15 9 6 5 7 8 9 7 8 8 8 8 8 10 13 12 11 11 10
10 13 15 20 20 22 25 25 26 26 26 28 28 28 27 27 26 25 24 23 19 15 13 12 15 18 8 8 8 9 9 9 10 9 9 10 11 10 16 16 14 13 12
13 13 14 18 18 21 25 25 25 26 27 27 28 27 26 26 26 25 24 24 23 20 16 12 7 7 9 6 11 11 11 12 11 11 11 11 12 15 15 18 17 14 13
10 11 13 16 18 20 23 24 24 25 26 26 26 26 25 24 25 25 25 25 24 22 21 18 14 10 6 4 5 10 12 13 14 14 13 13 14 16 18 17 18 16 14
10 12 14 17 19 18 21 23 23 25 25 25 26 26 24 23 25 24 24 25 25 24 21 19 18 16 15 11 7 8 10 14 15 15 15 15 16 16 17 18 22 18 17
10 12 14 16 17 17 16 20 21 21 25 25 25 27 25 23 25 25 24 25 24 24 23 22 20 17 16 16 14 12 13 15 16 17 17 17 19 16 15 14 26 20 18
11 14 15 17 18 18 18 20 21 20 21 22 25 27 24 23 23 24 23 25 24 24 23 23 21 19 14 14 14 13 14 10 16 19 19 20 23 20 17 14 22 21 19
12 13 14 16 17 18 17 18 19 20 21 22 24 25 22 22 23 23 22 24 24 24 23 23 22 21 17 14 14 14 14 15 15 19 21 21 25 25 21 19 19 23 22
9 11 13 13 15 16 16 17 18 18 19 19 21 22 21 21 22 22 22 23 23 24 23 24 21 18 19 18 17 15 15 19 19 17 21 24 27 26 25 24 22 24 25
9 11 12 14 15 16 15 16 17 17 18 18 20 21 21 20 20 20 20 22 21 21 22 22 22 22 19 19 18 19 18 17 21 23 20 24 28 28 27 27 26 26 30
7 9 11 12 13 14 14 15 15 16 17 18 18 19 20 19 19 19 19 19 19 21 21 23 22 23 22 20 20 20 21 21 19 23 26 20 27 29 31 29 28 26 30
6 8 9 10 13 13 14 15 14 14 14 14 14 15 17 17 19 20 19 19 19 19 20 21 22 22 22 23 23 21 22 23 22 22 25 30 23 31 32 33 31 29 31
6 8 10 11 12 13 13 14 13 12 13 13 14 14 14 15 16 18 18 19 18 20 20 20 21 21 22 22 24 24 23 23 24 23 25 25 30 28 33 35 35 34 34
2 4 6 7 9 10 12 14 14 14 14 14 14 15 15 15 15 16 17 17 18 19 18 18 19 21 22 23 25 26 26 25 26 26 27 28 27 28 29 34 39 38 37
1 4 7 8 9 10 14 14 14 14 13 13 14 14 15 16 16 17 17 18 18 18 18 18 19 20 22 24 26 27 28 29 28 28 29 33 31 37 30 31 35 41 42
1 4 7 9 9 12 13 14 14 15 15 15 15 15 16 16 17 17 18 18 18 18 17 17 19 20 21 23 26 30 30 28 28 29 30 30 37 35 36 30 29 38 44
2 5 8 11 11 13 14 15 16 16 18 16 16 16 15 15 15 16 17 18 19 18 19 19 19 20 20 20 21 23 25 27 29 31 31 31 33 38 35 37 34 31 38
3 6 9 10 9 12 14 15 15 16 16 18 18 18 18 17 18 17 18 18 17 18 18 18 18 19 18 15 15 21 8 17 16 13 18 25 29 30 34 41 36 35 34
4 6 9 10 9 13 14 15 16 17 17 17 17 20 19 20 20 19 18 18 18 18 18 18 18 18 18 18 14 9 5 5 16 14 14 13 14 17 30 39 34 37 35
4 7 9 9 11 13 14 15 16 18 18 19 20 20 22 21 21 20 19 18 18 18 19 19 17 18 17 19 17 15 16 16 6 8 16 23 19 23 19 13 32 34 34
5 8 9 10 13 13 15 15 16 18 18 19 20 21 22 22 20 20 20 19 19 19 19 19 20 19 19 19 20 18 18 19 20 11 13 17 26 19 28 20 25 20 41
6 8 9 12 13 14 15 16 17 18 20 21 22 23 22 21 22 21 20 20 21 21 21 20 20 20 21 21 22 21 21 16 15 11 7 14 19 28 28 30 25 27 23
Wind_Direction
345 354 357 3 7 12 17 21 23 24 24 25 27 30 34 36 31 21 18 11 3 356 341 313 303 255 178 211 220 198 157 136 136 148 145 146 146 141 143 142 126 134 130
342 358 2 8 11 16 20 23 25 24 25 25 23 26 28 32 33 39 34 19 8 358 344 340 319 285 237 210 247 219 210 181 157 167 162 158 173 166 158 155 142 157 143
358 1 12 10 16 18 24 24 25 24 23 25 24 24 24 23 26 27 29 32 36 16 356 350 345 316 232 218 232 250 236 228 191 182 178 167 186 192 173 165 159 150 150
2 6 12 14 20 21 24 27 26 25 23 24 24 23 23 21 19 18 21 22 30 28 25 9 354 350 281 222 212 231 237 241 214 201 197 199 199 205 187 175 165 164 158
13 15 16 18 22 23 27 29 27 25 24 23 24 23 21 22 20 17 16 8 11 15 18 25 14 344 322 276 234 233 235 234 230 212 220 213 208 215 197 188 181 177 172
23 25 21 22 24 25 25 27 27 26 23 22 23 21 19 19 19 17 15 9 4 349 357 9 21 20 324 293 264 249 238 236 236 222 227 227 214 222 211 196 190 187 187
21 23 23 26 24 27 27 27 23 22 22 21 21 19 16 15 17 15 15 12 8 359 341 336 330 355 16 321 281 262 254 245 234 232 235 236 232 232 223 207 199 193 192
31 23 21 18 23 29 28 25 23 22 19 19 19 16 12 12 13 13 11 10 7 4 359 342 326 289 301 315 279 274 260 252 242 238 240 241 238 237 229 217 202 199 193
35 30 25 22 22 23 21 22 21 18 18 16 14 11 10 8 6 4 3 5 4 1 358 352 340 308 277 275 281 261 250 251 241 246 244 243 246 238 230 227 207 202 197
42 34 29 25 22 24 19 19 19 18 17 14 11 10 7 3 1 357 354 353 356 356 354 351 345 331 309 285 272 269 256 238 245 246 251 245 243 234 231 227 201 203 201
38 30 25 22 19 17 14 10 11 11 13 14 10 5 4 359 356 354 350 351 348 347 346 346 342 335 318 312 284 277 270 264 253 247 247 251 246 236 228 221 209 201 204
35 28 25 20 16 14 12 9 8 9 7 6 5 3 359 355 353 352 348 349 346 345 340 341 340 341 332 326 314 288 273 261 252 253 250 247 250 241 235 230 224 212 209
36 30 24 21 18 15 10 9 7 4 2 1 0 360 358 355 351 350 347 346 343 343 341 338 337 336 331 325 316 305 290 271 260 254 253 250 251 245 238 237 232 224 215
36 27 21 18 15 12 10 7 1 0 359 358 356 357 356 352 350 349 345 342 340 338 335 336 331 327 323 318 312 304 295 282 269 256 255 251 254 247 242 237 236 231 221
42 29 22 16 13 8 6 0 356 355 354 352 353 352 353 349 346 344 341 340 336 334 333 330 327 323 319 315 309 303 296 289 275 266 254 253 254 251 246 239 235 233 224
47 29 17 13 6 1 358 353 346 341 339 341 343 345 348 346 342 339 336 335 333 333 329 325 321 320 314 313 307 301 293 286 282 272 261 250 252 253 246 244 235 233 224
34 15 8 2 358 357 352 345 340 336 335 335 335 332 337 338 339 337 332 331 331 328 326 323 319 316 311 309 304 301 295 288 282 276 268 261 246 254 249 243 237 231 225
30 4 352 348 346 345 342 340 336 335 336 334 334 334 333 332 329 330 326 325 324 325 322 320 319 316 312 308 304 299 295 290 282 277 271 262 252 246 247 245 239 232 226
357 354 350 343 339 341 339 338 334 331 331 328 326 325 326 327 326 324 321 318 320 320 318 318 316 314 311 308 303 298 293 287 281 276 269 264 257 243 244 240 240 233 230
326 345 341 337 337 338 339 332 328 326 324 322 320 319 320 318 320 320 316 315 316 315 314 313 312 310 307 306 303 297 290 283 278 272 269 265 259 248 246 238 237 236 231
305 337 337 337 334 336 334 328 323 320 318 316 315 315 316 313 312 313 310 310 310 309 309 310 310 310 311 311 310 306 295 283 273 268 263 260 259 254 243 240 228 232 229
292 330 336 332 322 322 322 317 314 313 312 312 314 315 314 314 313 310 306 303 301 301 302 304 305 307 306 309 313 304 298 305 272 286 272 260 256 253 243 239 234 228 225
294 329 331 320 311 317 319 317 318 315 312 311 311 309 308 308 306 304 300 297 296 295 295 297 300 303 303 303 296 285 302 316 338 292 291 304 312 294 247 236 231 228 225
300 325 322 312 315 317 319 316 313 310 306 306 305 302 303 301 301 298 295 293 291 290 288 290 291 292 293 292 293 278 271 274 294 309 302 304 304 319 315 333 245 230 225
295 314 313 311 312 315 316 312 308 303 302 302 300 300 299 298 296 295 294 292 290 286 283 282 283 282 280 280 282 285 280 275 272 267 286 298 303 303 317 316 292 297 231
293 311 308 309 312 316 311 306 301 299 301 300 300 299 299 298 296 293 292 290 288 285 283 282 280 277 275 274 275 275 272 270 273 288 291 294 298 300 311 306 299 292 279